[[{"header":{"parameterUnit":"m.s-1","parameterCategory":1,"la1":30.2991,"la2":30.254,"lo1":-89.0895,"lo2":-89.0444,"dy":0.0017,"dx":0.0017,"nx":28,"ny":28,"refTime":"2023-08-16T21:00:00:Z","depth":0,"parameterNumber":2,"parameterNumberName":"U-component_of_WINDS"},"data":[0,0,0,0,0,0,0,0,0,0,0,0,0,0,0,0,0,0,0,0,0,0,0,0,0,0,0,0,0,0,0,0,0,0,0,0,0,0,0,0,0,0,0,0,0,0,0,0,0,0,0,0,0,0,0,0,0,0,0.8907,0.8907,0,0.8921,0.8921,0.8921,0.887,0.8868,0.8867,0.8865,0.8883,0.8885,0.8887,0,0,0,0,0,0,0,0,0,0,0,0,0,0.8837,0.8838,0.8907,0.8907,0.8907,0.8921,0.8921,0.8921,0.887,0.8868,0.8867,0.8865,0.8882,0.8885,0.8887,0,0,0,0,0,0,0,0,0,0,0,0,0,0.8861,0.8839,0.8907,0.8883,0.8881,0.8921,0.8921,0.8921,0.8871,0.8868,0.8866,0.8864,0.8882,0.8884,0.8887,0.8951,0,0,0.8896,0.8897,0,0,0,0,0,0,0,0,0.886,0.8864,0.8886,0.8885,0.8883,0.8891,0.8903,0.8932,0.8871,0.8875,0.8865,0.8863,0.8888,0.889,0.8898,0.8952,0.8953,0.8896,0.8898,0.8899,0.89,0,0,0,0,0,0,0,0.8858,0.8863,0.8912,0.8887,0.8885,0.8873,0.8873,0.8908,0.8894,0.8874,0.8871,0.8873,0.8886,0.8895,0.8898,0.8953,0.8896,0.8899,0.89,0.8901,0.9059,0.9062,0,0,0,0,0,0,0.8859,0.8862,0.8912,0.8913,0.8865,0.8876,0.8877,0.8891,0.8894,0.8892,0.8875,0.887,0.8891,0.8895,0.8898,0.8972,0.8899,0.8902,0.8903,0.9057,0.906,0.9062,0,0,0,0,0,0,0.8858,0.8864,0.8911,0.8886,0.8891,0.8879,0.8896,0.8892,0.8901,0.8894,0.8891,0.8886,0.889,0.8894,0.8938,0.8972,0.8903,0.8906,0.9054,0.9058,0.9061,0.9122,0,0,0,0,0,0,0.8856,0.8864,0.8888,0.8887,0.8893,0.895,0.8898,0.8894,0.8906,0.89,0.8904,0.8903,0.8888,0.8934,0.8941,0.8975,0.8908,0.9051,0.9056,0.906,0.9116,0.9127,0.9136,0,0,0,0,0,0.8854,0.8905,0.8889,0.8896,0.8922,0.8952,0.8956,0.8937,0.8909,0.8933,0.8928,0.8902,0.8968,0.8939,0.8946,0.8982,0.9048,0.9054,0.906,0.9112,0.9125,0.9136,0,0,0,0,0,0,0.8911,0.8905,0.8887,0.8939,0.8947,0.8944,0.8973,0.8952,0.8968,0.8962,0.894,0.8941,0.8989,0.899,0.8958,0.9043,0.9003,0.901,0.9041,0.9053,0.9062,0.9061,0.891,0,0,0,0,0,0.893,0.8954,0.8947,0.8994,0.8999,0.8986,0.8998,0.8983,0.899,0.8993,0.8992,0.9001,0.9023,0.9038,0.9058,0.9117,0.9116,0.9145,0.9154,0.9162,0.9169,0.9199,0.9211,0.9081,0.9081,0.9081,0,0,0.8969,0.8968,0.8985,0.9006,0.901,0.9036,0.8989,0.9018,0.9038,0.8998,0.9039,0.9038,0.9046,0.9097,0.912,0.91,0.9205,0.917,0.9176,0.9178,0.9206,0.9218,0.9229,0.9085,0.9084,0.9083,0,0,0.9052,0.9055,0.9093,0.9098,0.9104,0.9095,0.9104,0.9105,0.9102,0.9142,0.9113,0.9136,0.9175,0.9182,0.919,0.9276,0.9253,0.9284,0.9334,0.9364,0.9374,0.9383,0.9413,0.9424,0.929,0.929,0.929,0,0.91,0.9137,0.9116,0.9148,0.9158,0.9122,0.9161,0.9167,0.918,0.9188,0.9165,0.9213,0.9216,0.9267,0.9288,0.9297,0.9307,0.9283,0.9374,0.9383,0.9391,0.9419,0.943,0.9294,0.9293,0.9293,0.9293,0,0.9195,0.9222,0.9252,0.9264,0.9278,0.9313,0.9298,0.9314,0.9298,0.9292,0.9333,0.9335,0.9355,0.9366,0.9352,0.9416,0.9403,0.9378,0.9337,0.9407,0.9433,0.9444,0.9299,0.9298,0.9297,0.9296,0,0,0.9315,0.9314,0.9326,0.9331,0.9335,0.9355,0.9389,0.9407,0.9421,0.9431,0.9459,0.9492,0.9468,0.9478,0.9464,0.949,0.9557,0.9462,0.9461,0.9478,0.9627,0.9646,0.9658,0.9542,0.9544,0.9546,0.9626,0,0.9397,0.9453,0.9435,0.9492,0.9516,0.9483,0.9512,0.9518,0.9513,0.9533,0.9528,0.9551,0.9518,0.9524,0.9548,0.9544,0.9587,0.9538,0.9568,0.9569,0.9565,0.9672,0.9692,0.9767,0.9636,0.9638,0.9639,0,0.9499,0.9512,0.9571,0.957,0.9579,0.9606,0.9621,0.964,0.9647,0.9641,0.9652,0.9632,0.9665,0.9625,0.9671,0.9638,0.9649,0.9649,0.9652,0.9653,0.9608,0.9676,0.9791,0.9802,0.9655,0.9654,0.9653,0,0.9579,0.9611,0.9651,0.9656,0.9656,0.9675,0.9677,0.968,0.9692,0.9706,0.9713,0.9731,0.974,0.9755,0.974,0.9713,0.9788,0.9747,0.9785,0.9785,0.9801,0.98,0.992,0.981,0.981,0.981,0.981,0,0.9671,0.9708,0.9686,0.9711,0.9751,0.9731,0.9772,0.977,0.9773,0.9797,0.977,0.9793,0.9773,0.9794,0.9784,0.9823,0.9828,0.9824,0.9821,0.9826,0.9826,0.9832,0.9826,0.9813,0.9812,0.9812,0.9811,0,0.9767,0.9754,0.9794,0.9791,0.9791,0.9821,0.9819,0.9841,0.9834,0.9864,0.987,0.9859,0.9882,0.987,0.9895,0.9887,0.9938,0.9928,0.9935,0.9932,0.997,0.9966,1.0096,1.0112,0.9994,0.9995,0.9996,0,0.9826,0.9853,0.9853,0.9866,0.9869,0.9891,0.9902,0.9883,0.9896,0.9905,0.9927,0.9948,0.9963,1.0002,0.9997,1.0016,1.0006,1.005,1.0008,1.0012,1.0005,1.0003,1.0005,1.0058,1.0059,1.0061,1.0062,0,0.9932,0.9923,0.994,0.9955,0.997,0.9981,0.999,1.0002,0.9983,1.0,1.0023,1.0035,1.0059,1.0081,1.0097,1.0099,1.0077,1.0075,1.0084,1.0089,1.0092,1.009,0.9957,1.0072,1.0071,1.007,1.0069,1.0069,1.001,1.0033,1.0035,1.0055,1.006,1.0069,1.0089,1.0084,1.0103,1.012,1.0108,1.0135,1.0141,1.016,1.0165,1.0186,1.0168,1.0182,1.0186,1.0189,1.0194,1.009,1.0189,1.0189,1.0189,1.0188,1.0188,0,1.0113,1.0113,1.0132,1.0144,1.016,1.0138,1.0146,1.0161,1.0185,1.0191,1.0207,1.0233,1.0254,1.025,1.0269,1.0286,1.0277,1.0292,1.029,1.029,1.0209,1.0199,1.0299,1.0299,1.0299,1.0299,1.0299,1.0299,1.0169,1.0205,1.0198,1.0237,1.0237,1.0262,1.0269,1.0277,1.0282,1.0312,1.0328,1.0325,1.0328,1.0346,1.0364,1.0362,1.037,1.0389,1.0383,1.0307,1.0296,1.0286,1.0276,1.0391,1.0391,1.0463,1.0463,1.0464]},{"header":{"parameterUnit":"m.s-1","parameterCategory":1,"la1":30.2991,"la2":30.254,"lo1":-89.0895,"lo2":-89.0444,"dy":0.0017,"dx":0.0017,"nx":28,"ny":28,"refTime":"2023-08-16T21:00:00:Z","depth":0,"parameterNumber":3,"parameterNumberName":"V-component_of_WINDS"},"data":[0,0,0,0,0,0,0,0,0,0,0,0,0,0,0,0,0,0,0,0,0,0,0,0,0,0,0,0,0,0,0,0,0,0,0,0,0,0,0,0,0,0,0,0,0,0,0,0,0,0,0,0,0,0,0,0,0,0,0.2699,0.2697,0,0.2535,0.2533,0.2531,0.2407,0.2406,0.2404,0.2403,0.2232,0.2229,0.2225,0,0,0,0,0,0,0,0,0,0,0,0,0,0.2901,0.2898,0.2699,0.2697,0.2695,0.2535,0.2533,0.253,0.2407,0.2406,0.2404,0.2403,0.2233,0.2229,0.2225,0,0,0,0,0,0,0,0,0,0,0,0,0,0.2783,0.2897,0.2699,0.2614,0.2605,0.2535,0.2533,0.253,0.2407,0.2406,0.2404,0.2402,0.2235,0.223,0.2224,0.2226,0,0,0.2208,0.2206,0,0,0,0,0,0,0,0,0.2789,0.2775,0.2628,0.262,0.2609,0.2489,0.2541,0.2428,0.2408,0.2482,0.2403,0.2401,0.2319,0.2307,0.2279,0.2218,0.221,0.2208,0.2205,0.2202,0.2201,0,0,0,0,0,0,0,0.2798,0.2782,0.2634,0.2626,0.2615,0.2582,0.2564,0.2519,0.2412,0.2475,0.2466,0.2449,0.2313,0.2285,0.2275,0.2208,0.2208,0.2203,0.22,0.2198,0.2138,0.2139,0,0,0,0,0,0,0.282,0.2789,0.2639,0.2629,0.2697,0.258,0.2559,0.253,0.2412,0.2393,0.245,0.2443,0.2295,0.2281,0.2268,0.2261,0.2202,0.2197,0.2194,0.2136,0.2138,0.214,0,0,0,0,0,0,0.2825,0.2808,0.2645,0.2706,0.2683,0.2579,0.2546,0.2527,0.2499,0.2393,0.2373,0.2441,0.2293,0.2275,0.2237,0.2254,0.2195,0.219,0.2134,0.2137,0.2139,0.2249,0,0,0,0,0,0,0.2831,0.281,0.2811,0.2707,0.2681,0.2619,0.2547,0.2525,0.249,0.248,0.2379,0.2361,0.229,0.2246,0.2232,0.2245,0.2186,0.2132,0.2135,0.2138,0.2243,0.2255,0.2264,0,0,0,0,0,0.2839,0.2848,0.2811,0.2794,0.2679,0.262,0.2605,0.2524,0.2492,0.2491,0.2423,0.2364,0.2254,0.2243,0.2226,0.2238,0.2131,0.2134,0.2138,0.2239,0.2252,0.2264,0,0,0,0,0,0,0.2955,0.2833,0.2791,0.2767,0.2705,0.26,0.2596,0.2542,0.2487,0.2479,0.238,0.2359,0.2331,0.228,0.227,0.2233,0.2185,0.2185,0.2267,0.2279,0.229,0.2303,0.2182,0,0,0,0,0,0.2978,0.2941,0.2836,0.2825,0.2796,0.2702,0.2673,0.2616,0.2548,0.252,0.2449,0.2384,0.2334,0.2304,0.2253,0.2235,0.2211,0.2235,0.2246,0.2255,0.2256,0.2243,0.2252,0.2151,0.2151,0.2151,0,0,0.3024,0.2953,0.2936,0.2846,0.2792,0.2755,0.268,0.2645,0.2616,0.2514,0.2474,0.242,0.234,0.2313,0.2297,0.227,0.2279,0.2259,0.2268,0.2264,0.2247,0.2257,0.2265,0.2153,0.2153,0.2153,0,0,0.3091,0.3034,0.3018,0.2965,0.2883,0.282,0.2817,0.2719,0.2679,0.2638,0.256,0.2524,0.2441,0.2387,0.2349,0.2395,0.2338,0.2381,0.2436,0.2424,0.2431,0.2438,0.2454,0.2461,0.2382,0.2383,0.2383,0,0.3159,0.3102,0.3016,0.2985,0.2948,0.2855,0.2838,0.279,0.2695,0.2671,0.2642,0.2536,0.2476,0.2434,0.2445,0.2417,0.2409,0.2392,0.2437,0.2443,0.2448,0.2462,0.2468,0.2388,0.2388,0.2387,0.2387,0,0.3189,0.3151,0.3147,0.306,0.3022,0.2998,0.2908,0.2879,0.2825,0.2765,0.2723,0.2648,0.2579,0.2565,0.2512,0.2515,0.2501,0.2456,0.2406,0.2465,0.2476,0.2481,0.2397,0.2394,0.2393,0.2391,0,0,0.3325,0.319,0.319,0.3149,0.3052,0.302,0.2991,0.2925,0.2902,0.284,0.2812,0.2744,0.2702,0.2659,0.2599,0.2588,0.2628,0.2544,0.2541,0.2562,0.2626,0.2661,0.2668,0.259,0.2591,0.2591,0.2633,0,0.3376,0.3321,0.3243,0.3213,0.3175,0.3086,0.3061,0.2998,0.2941,0.2899,0.2835,0.2788,0.2737,0.271,0.2695,0.2627,0.264,0.2622,0.2563,0.2562,0.2586,0.2674,0.271,0.2754,0.2637,0.2637,0.2638,0,0.3429,0.3372,0.3339,0.3245,0.3226,0.3205,0.3137,0.31,0.3026,0.2984,0.2937,0.2871,0.2835,0.279,0.2737,0.2728,0.2698,0.2661,0.266,0.2652,0.2604,0.2668,0.2765,0.2772,0.2644,0.2644,0.2643,0,0.3531,0.3446,0.3415,0.3383,0.3272,0.3259,0.3212,0.3136,0.3101,0.3042,0.3018,0.2955,0.2921,0.2873,0.2792,0.2766,0.2748,0.2696,0.2712,0.2714,0.2712,0.2714,0.2807,0.2694,0.2694,0.2694,0.2693,0,0.3596,0.358,0.346,0.3441,0.3419,0.3329,0.3309,0.3253,0.3187,0.3154,0.3073,0.3044,0.2939,0.2897,0.2833,0.28,0.2784,0.2749,0.2733,0.2757,0.2762,0.2737,0.2732,0.2695,0.2695,0.2695,0.2694,0,0.3707,0.3626,0.3587,0.3485,0.3459,0.3447,0.3359,0.3336,0.3274,0.3234,0.3219,0.3121,0.3068,0.2983,0.2904,0.2861,0.2838,0.281,0.2864,0.2854,0.2874,0.2874,0.2955,0.2961,0.2845,0.2846,0.2847,0,0.3755,0.374,0.3636,0.3609,0.3565,0.3523,0.3487,0.3397,0.3363,0.3277,0.3265,0.3205,0.3153,0.3072,0.2992,0.2931,0.2901,0.2934,0.2892,0.2916,0.2902,0.2904,0.2902,0.2944,0.2946,0.2947,0.2948,0,0.3847,0.3808,0.376,0.3698,0.3658,0.3604,0.3547,0.3529,0.3426,0.3391,0.3336,0.3296,0.3216,0.3157,0.3085,0.3034,0.2974,0.2962,0.2962,0.2987,0.3019,0.3002,0.2891,0.2961,0.296,0.2959,0.2958,0.2957,0.3927,0.391,0.3834,0.3783,0.3731,0.3679,0.3652,0.3587,0.354,0.3469,0.3418,0.3366,0.3291,0.3188,0.3141,0.3098,0.3071,0.3072,0.3072,0.3074,0.3083,0.3026,0.3084,0.3084,0.3084,0.3083,0.3083,0,0.4016,0.3963,0.3917,0.3839,0.3799,0.3746,0.3679,0.3649,0.3605,0.3541,0.3491,0.3427,0.337,0.3287,0.3223,0.3205,0.3175,0.3191,0.3191,0.318,0.311,0.3117,0.3216,0.3216,0.3216,0.3216,0.3216,0.3216,0.4057,0.4025,0.3976,0.3916,0.3862,0.3812,0.3778,0.3729,0.3678,0.3611,0.3563,0.351,0.3437,0.3367,0.3312,0.3288,0.3269,0.3293,0.3261,0.3198,0.3185,0.3174,0.3179,0.329,0.329,0.3334,0.3335,0.3335]}]]